Simultaneous Nadir Overpasses (SNOs) Predictions

Prediction of SNOs between TERRA and METOP-C Satellite Orbit:

Table of predicted SNOs for the next 14.0 days since TLE Epoch: 3/4/2023
Index Date (TERRA) Time (TERRA) Lat,Lon (TERRA) SZA (TERRA ) Date (METOP-C) Time (METOP-C) Lat,Lon (METOP-C) SZA (METOP-C ) Distance(km) Time Diff (sec)
1 03/05/2023 03:24:18 -80.92, -16.20 91.58 03/05/2023 03:23:58 -80.92, -16.23 91.60 0.83 20
2 03/05/2023 04:13:39 80.94, 151.72 88.45 03/05/2023 04:14:36 80.94, 151.62 88.46 1.69 57
3 03/07/2023 19:35:35 -80.93, 101.05 92.59 03/07/2023 19:35:34 -80.93, 101.18 92.58 2.25 1
4 03/10/2023 10:57:31 80.87, 49.78 86.28 03/10/2023 10:56:33 80.87, 49.66 86.25 2.24 58
5 03/10/2023 11:46:52 -80.94,-141.69 93.60 03/10/2023 11:47:11 -80.94,-141.52 93.58 3.08 19
6 03/13/2023 03:08:47 80.87, 167.02 85.26 03/13/2023 03:08:10 80.87, 166.85 85.23 3.00 37
7 03/13/2023 03:58:08 -80.95, -24.43 94.62 03/13/2023 03:58:48 -80.95, -24.32 94.60 1.94 40
8 03/15/2023 19:20:01 80.91, -75.38 84.29 03/15/2023 19:19:45 80.91, -75.33 84.29 0.94 16



Historial Predications of SNOs between TERRA and METOP-C
